Weather History for Montpelier, VT

Change the Weather History Date:

Monday, November 7, 2011

  Actual Average Record
Temperature  
Mean Temperature 43 °F 39 °F  
Max Temperature 63 °F 48 °F 69 °F (1975)
Min Temperature 22 °F 30 °F 11 °F (2002)
Degree Days  
Heating Degree Days 22 26  
Month to date heating degree days 180 178  
Since 1 July heating degree days 866 1134  
Cooling Degree Days 0 0  
Month to date cooling degree days 0  
Year to date cooling degree days 264  
Moisture  
Dew Point 32 °F    
Average Humidity 62    
Maximum Humidity 88    
Minimum Humidity 35    
Precipitation  
Precipitation 0.00 in 0.10 in 1.11 in (1948)
Month to date precipitation T 0.77  
Year to date precipitation 49.49 32.13  
Sea Level Pressure  
Sea Level Pressure 30.26 in    
Wind  
Wind Speed 3 mph (SSW)    
Max Wind Speed 9 mph    
Max Gust Speed 13 mph    
Visibility 10 miles    
Events      
T = Trace of Precipitation, MM = Missing Value Source: NWS Daily Summary

Daily Weather History Graph

Daily Weather History Graph

Search for Another Location

Airport:

Trip Planner

Search our weather history database for the weather conditions in past years. The results will help you decide how hot, cold, wet, or windy it might be!

Date:

Astronomy

Nov. 07, 2011 Rise Set
Actual Time 6:34 AM EST 4:32 PM EST
Civil Twilight 6:04 AM EST 5:03 PM EST
Nautical Twilight 5:29 AM EST 5:37 PM EST
Astronomical Twilight 4:55 AM EST 6:11 PM EST
Moon 2:46 PM EST (11/7) 3:29 AM EST (11/7)
Length of Visible Light 10h 59m
Length of Day
9h 57m
Waxing Gibbous, 91% of the Moon is Illuminated
Nov 7
Waxing Gibbous
Nov 10
Full
Nov 18
Last Quarter
Nov 25
New
Dec 2
First Quarter

Hourly Weather History & Observations

Time (EST) Temp. Windchill Dew Point Humidity Pressure Visibility Wind Dir Wind Speed Gust Speed Precip Events Conditions
12:51 AM 27.0 °F 23.0 °F 21.0 °F 78% 30.31 in 10.0 mi NNW 3.5 mph - N/A   Clear
1:51 AM 27.0 °F - 21.0 °F 78% 30.31 in 10.0 mi Calm Calm - N/A   Clear
2:51 AM 26.1 °F - 21.9 °F 84% 30.31 in 10.0 mi Calm Calm - N/A   Clear
3:51 AM 26.1 °F - 21.9 °F 84% 30.31 in 10.0 mi Calm Calm - N/A   Clear
4:51 AM 25.0 °F - 19.9 °F 81% 30.32 in 10.0 mi Calm Calm - N/A   Clear
5:51 AM 23.0 °F - 19.0 °F 85% 30.32 in 10.0 mi Calm Calm - N/A   Clear
6:51 AM 24.1 °F - 21.0 °F 88% 30.33 in 10.0 mi Calm Calm - N/A   Clear
7:51 AM 28.9 °F - 25.0 °F 85% 30.34 in 10.0 mi Calm Calm - N/A   Clear
8:51 AM 35.1 °F - 27.0 °F 72% 30.32 in 10.0 mi Calm Calm - N/A   Clear
9:51 AM 41.0 °F - 28.9 °F 62% 30.29 in 10.0 mi Calm Calm - N/A   Clear
10:51 AM 48.0 °F - 30.0 °F 50% 30.27 in 10.0 mi NW 3.5 mph - N/A   Clear
11:51 AM 57.9 °F - 30.0 °F 35% 30.23 in 10.0 mi ESE 6.9 mph - N/A   Clear
12:51 PM 60.8 °F - 32.0 °F 34% 30.18 in 10.0 mi Calm Calm - N/A   Overcast
1:51 PM 62.1 °F - 39.9 °F 44% 30.20 in 10.0 mi Variable 3.5 mph - N/A   Mostly Cloudy
2:51 PM 61.0 °F - 44.1 °F 54% 30.19 in 10.0 mi WSW 9.2 mph - N/A   Partly Cloudy
3:51 PM 57.0 °F - 43.0 °F 59% 30.20 in 10.0 mi SSW 8.1 mph - N/A   Clear
4:51 PM 54.0 °F - 41.0 °F 62% 30.21 in 10.0 mi SSW 6.9 mph - N/A   Clear
5:51 PM 48.0 °F - 39.0 °F 71% 30.23 in 10.0 mi SSW 3.5 mph - N/A   Clear
6:51 PM 48.0 °F - 39.9 °F 74% 30.23 in 10.0 mi Calm Calm - N/A   Clear
7:51 PM 46.0 °F 43.1 °F 39.0 °F 76% 30.23 in 10.0 mi South 5.8 mph - N/A   Clear
8:51 PM 46.9 °F - 39.9 °F 77% 30.23 in 10.0 mi South 6.9 mph - N/A   Clear
9:51 PM 46.0 °F 41.9 °F 39.9 °F 79% 30.24 in 10.0 mi South 8.1 mph - N/A   Clear
10:51 PM 42.1 °F - 37.9 °F 85% 30.24 in 10.0 mi Calm Calm - N/A   Clear
11:51 PM 41.0 °F - 37.9 °F 89% 30.24 in 10.0 mi Calm Calm - N/A   Clear